Location: Turtle Rock Observatory
(36.6913°N, 81.9708°W)
Time: 04:59:04
(UTC-04:00)

Daily predictions for brighter satellites

Satellite Brightness Start Highest point End
(mag) Time Altitude Azimuth Time Altitude Azimuth Time Altitude Azimuth
Cosmos 1943 Rocket 4.4 04:29:43 17° NNE 04:29:43 17° NNE 04:30:57 10° NNE
ADEOS II 4.3 04:23:50 10° NNE 04:25:34 20° NE 04:25:34 20° NE
Milstar 3 3.7 04:45:27 36° SE 04:45:27 36° SE 04:50:14 10° ESE
Nadezhda 1 Rocket 4.0 05:08:43 73° N 05:08:43 73° N 05:14:25 10° N
Cosmos 2369 Rocket 4.4 05:14:24 14° N 05:14:24 14° N 05:15:17 10° N
CZ-3 R/B 4.0 05:05:18 41° WSW 05:16:18 57° SSW 05:26:33 10° SE
OAO 2 Rocket 3.9 05:18:17 52° ESE 05:18:17 52° ESE 05:22:06 10° E
CZ-4C R/B 2.9 05:14:33 44° NNW 05:17:20 89° ENE 05:25:25 10° SSE
NOSS 3-1 (C) 3.2 05:27:28 64° SSW 05:28:23 83° ESE 05:34:39 10° NNE
Okean O Rocket 2.0 05:25:27 10° NNE 05:29:16 61° NE 05:29:16 61° NE
USA 229 DEB 3.9 05:30:27 50° NW 05:30:27 50° NW 05:37:01 10° NNE
USA 229 3.9 05:30:31 50° NW 05:30:31 50° NW 05:37:07 10° NNE
Meteor 1-31 Rocket 4.3 05:30:19 10° NNE 05:33:48 34° E 05:37:17 10° SSE
NOSS 3-1 (A) 3.6 05:31:55 33° S 05:34:30 64° ESE 05:40:41 10° NE
Cosmos-2242 4.3 05:31:12 10° N 05:35:15 39° E 05:39:18 10° SSE
Cosmos 1758 Rocket 4.4 05:37:03 40° N 05:37:03 40° N 05:40:00 10° N
Tiangong 2 3.2 05:38:00 28° E 05:38:00 28° E 05:39:42 10° ESE
Cosmos 1833 4.3 05:40:54 52° SW 05:40:54 52° SW 05:45:31 10° S
Cosmos 2219 4.2 05:37:01 10° N 05:42:27 45° ENE 05:47:50 10° SE
BREEZE-M DEB (TANK) 3.1 05:42:44 51° NNW 05:42:44 51° NNW 05:50:25 10° NE
GPS 2-04 Rocket1 3.7 05:43:54 37° SSE 05:43:54 37° SSE 05:46:28 10° ESE
USA 267 3.2 05:37:02 10° SSE 05:43:29 60° SW 05:45:25 44° WNW
Cosmos 2154 Rocket 3.9 05:38:39 10° N 05:44:59 74° W 05:51:14 10° S
Cosmos 1656 Rocket 3.9 05:49:54 47° WNW 05:49:54 47° WNW 05:55:22 10° N
Shenzhou-11 Module 4.0 05:52:02 24° SE 05:52:02 24° SE 05:53:30 10° SE
Meteor 2-5 Rocket 3.8 05:47:37 10° S 05:53:33 86° E 05:59:24 10° N
PAYLOAD B 4.1 05:52:41 10° N 05:58:08 66° WNW 06:03:35 10° SSW
Cosmos 44 Rocket 4.4 06:03:21 28° SW 06:03:21 28° SW 06:06:22 10° S
CZ-4B DEB 4.1 05:57:50 10° N 06:03:15 62° WNW 06:08:40 10° SSW
Cosmos 372 Rocket 3.9 06:02:45 10° SSW 06:07:57 86° WNW 06:13:13 10° NNE
ADEOS II 3.5 06:04:00 10° NNW 06:06:30 21° NW 06:06:30 21° NW
Meteor 1-16 Rocket 4.2 06:02:48 10° N 06:08:32 84° W 06:14:23 10° S
Cosmos 1943 Rocket 4.1 06:11:16 13° NW 06:11:16 13° NW 06:12:42 10° NNW
Cosmos 468 4.5 06:04:49 10° NNW 06:10:08 90° W 06:15:28 10° SSE
Landsat 4 3.6 06:10:06 10° SSE 06:13:52 86° E 06:17:39 10° NNW
CZ-4B R/B 3.3 06:11:41 10° N 06:16:58 51° WNW 06:22:19 10° SW
IDEFIX/ARIANE 42P 4.4 06:14:13 10° NNE 06:18:54 33° E 06:23:33 10° SSE
Meteor 2-14 Rocket 4.4 06:14:29 10° N 06:20:35 89° W 06:26:39 10° S
Cosmos 2218 Rocket 4.1 06:16:03 10° N 06:22:18 80° E 06:28:38 10° S
Cosmos 1125 Rocket 3.5 06:17:34 10° SSW 06:22:43 56° WNW 06:27:55 10° N
DELTA 2 R/B(2) 4.3 06:24:11 36° NNW 06:24:28 38° N 06:27:26 10° E
Meteor 1-28 Rocket 3.2 06:21:53 10° SSE 06:25:40 84° ENE 06:29:30 10° N
ERBS 3.3 06:24:42 14° NNW 06:27:24 46° NE 06:30:45 10° ESE
SJ 16-02 1.4 06:23:10 10° SSW 06:27:29 54° WNW 06:31:48 10° N
IRS-1C Rocket 4.4 06:22:34 10° N 06:27:33 45° WNW 06:32:32 10° SW
CZ-4B R/B 4.3 06:23:47 10° N 06:28:06 50° WNW 06:32:26 10° SSW
Meteor PRIRODA 4.3 06:24:57 10° N 06:28:22 34° WNW 06:30:15 21° WSW
CZ-3 Stage 3 3.9 06:27:13 20° WSW 06:30:37 60° S 06:54:58 10° E
Cosmos 1356 Rocket 4.1 06:28:17 17° SW 06:31:00 32° WNW 06:34:53 10° NNW
NOAA 6 4.2 06:26:11 10° NNE 06:31:23 77° ESE 06:36:31 10° S
MTI 3.6 06:30:48 10° S 06:34:02 80° WSW 06:37:18 10° NNW
Cosmos 2181 Rocket 4.3 06:30:26 10° SSW 06:36:18 42° WNW 06:42:08 10° N
Cosmos 2341 Rocket 4.4 06:30:48 10° NNW 06:36:40 40° W 06:42:31 10° SSW
Intercosmos 24 3.9 06:35:42 10° NNW 06:40:08 56° W 06:43:41 10° S
MINOTAUR R/B 4.3 06:39:18 10° NNW 06:41:57 74° ENE 06:44:34 10° SSE
SKYMED 2 3.8 06:38:21 10° SSE 06:42:40 75° ENE 06:47:01 10° N
Cosmos 2278 4.1 06:38:06 10° S 06:43:41 67° ESE 06:49:18 10° NNE
NOSS 2-3 (D) 4.5 06:42:41 10° SSW 06:47:08 57° ESE 06:52:10 10° NE
USA 116 4.0 06:46:45 10° SSW 06:49:59 37° W 06:53:38 10° NNW
Meteor 1-24 Rocket 4.1 06:48:22 10° SSW 06:54:07 46° WNW 06:59:49 10° N
Cosmos 1048 Rocket 4.2 06:49:57 10° NNW 06:54:55 47° WSW 06:59:55 10° S
CZ-2C R/B 3.3 06:50:10 10° NNE 06:55:05 57° E 07:00:06 10° S
SL-08 R/B 4.5 06:49:01 10° NNW 06:55:09 67° W 07:01:20 10° S
Cosmos 1674 2.5 06:54:35 10° S 06:58:18 80° W 07:02:02 10° N
Cosmos 2227 Rocket 2.5 06:53:37 10° NNW 06:59:19 73° ENE 07:04:57 10° SSE
OAO 2 Rocket 3.9 06:57:15 12° W 07:01:40 43° SSW 07:06:20 10° SE
SWAS 4.4 06:58:48 10° NNW 07:03:05 68° WSW 07:07:23 10° SSE
CZ-4C R/B 4.2 07:00:31 10° WNW 07:05:19 18° WSW 07:10:18 10° SW
Meteor 1-31 Rocket 4.5 07:05:57 10° NW 07:07:56 14° WNW 07:09:54 10° W
Tiangong 2 2.7 07:10:38 10° W 07:13:13 22° SW 07:15:48 10° SSE
ATLAS 2AS CENTAUR R/B 3.7 07:05:53 10° SSW 07:13:19 62° ESE 07:21:16 10° NE
